RH
54 58 61 80 85 91 79 87 96 100 98 74 66 75 52 50 34 23 55 45 79 73 100 100 95 99 100 100 100 98 87 57 44 38 36 30 25 24 23 26 30 36 47 58
80 61 53 86 89 94 80 74 86 54 80 99 98 82 54 38 31 38 91 81 68 81 99 100 99 98 96 99 87 54 44 39 38 34 27 24 26 24 30 36 46 57 64 72
77 46 41 50 57 68 63 33 71 97 73 79 95 79 27 23 35 43 26 98 92 92 95 100 79 76 62 41 40 38 36 36 30 25 27 26 30 37 44 52 61 69 78 75
70 60 45 39 49 57 53 95 100 100 88 92 93 38 33 28 59 24 20 52 44 32 43 36 36 34 36 37 40 38 30 26 28 28 30 38 42 50 59 69 77 82 76 70
59 64 63 58 46 46 63 75 81 88 100 100 95 76 56 50 48 44 38 34 31 31 36 38 40 43 42 36 29 28 31 30 33 40 44 49 57 69 77 84 80 77 70 64
69 53 55 62 66 65 49 47 51 54 61 74 88 92 86 82 76 72 68 63 59 55 51 46 38 31 31 35 33 34 38 43 48 51 55 67 78 83 83 80 79 70 60 54
86 68 53 54 54 58 60 66 56 49 51 54 57 54 52 49 47 45 44 41 40 38 39 40 39 37 38 41 44 50 52 54 62 72 80 85 83 79 80 79 68 56 54 52
97 90 76 71 65 57 59 59 58 62 65 63 59 57 58 56 53 49 46 43 42 42 42 44 46 50 52 54 59 67 72 78 82 84 79 77 80 83 78 64 56 56 48 38
100 100 100 98 86 83 76 72 75 74 67 62 58 55 53 51 50 50 52 54 56 60 64 68 72 73 73 74 79 84 84 79 74 71 78 82 82 72 60 55 53 47 39 35
96 100 99 100 99 98 95 94 93 93 95 96 95 95 94 93 93 95 95 92 90 89 87 85 85 84 81 76 71 68 67 70 75 81 84 81 66 60 57 54 47 42 39 34
97 97 97 99 98 99 100 100 99 100 99 99 99 99 99 98 95 88 83 79 77 72 65 60 57 54 55 60 64 68 75 83 89 86 72 65 62 60 56 51 47 41 35 28
98 96 98 96 96 96 96 97 98 97 92 90 89 85 81 77 69 62 57 53 50 48 48 51 53 55 62 69 77 85 88 85 76 69 67 63 59 57 53 48 42 35 28 23
92 82 78 73 69 73 75 73 77 87 88 86 80 74 72 67 65 66 66 65 62 58 58 60 63 68 70 73 76 81 78 71 72 70 63 58 57 54 50 42 35 29 20 12
86 83 86 96 95 90 84 79 75 71 75 90 90 86 81 78 78 80 80 79 75 72 69 69 69 68 68 76 79 75 74 76 68 60 59 56 53 48 42 36 27 17 8 5
78 98 97 92 88 89 83 72 77 76 69 72 84 97 98 98 97 96 93 88 84 80 77 75 74 76 79 81 84 83 74 64 61 58 57 55 49 41 35 27 16 10 5 5
92 95 98 90 80 70 73 72 64 73 77 73 74 77 84 91 97 97 94 92 92 89 87 84 86 85 89 89 81 71 66 61 59 58 54 46 39 33 25 16 8 5 5 7
86 74 69 95 93 70 62 61 64 60 68 75 76 76 81 88 94 98 98 98 98 97 95 93 90 89 84 76 69 63 60 60 57 49 42 37 30 21 14 8 5 6 8 8
74 92 91 93 85 61 55 53 51 52 59 68 80 88 96 100 100 100 100 100 100 99 95 91 85 81 76 68 64 62 58 52 45 39 34 27 19 12 6 5 6 8 10 16
55 68 94 98 91 61 52 52 52 51 55 70 85 93 98 100 100 99 99 100 99 95 93 91 88 78 66 61 59 54 47 40 34 29 24 17 9 5 5 7 10 12 18 45
87 95 95 82 67 55 55 63 58 59 68 77 88 94 97 98 98 99 99 100 100 100 99 89 72 63 59 54 48 42 35 30 26 20 13 6 5 5 7 10 13 23 50 52
90 92 91 80 72 68 68 65 62 71 85 91 95 97 99 100 100 100 100 100 100 95 80 68 60 54 49 43 36 30 27 23 16 8 5 5 6 11 13 16 27 55 57 27
65 69 82 80 77 78 70 67 73 84 92 99 100 100 100 100 100 100 100 99 89 73 62 58 52 47 38 29 25 24 19 11 5 4 6 8 12 15 22 38 64 60 27 30
82 80 77 81 82 82 80 80 88 94 97 100 100 100 100 100 99 99 94 81 66 60 58 56 48 33 24 23 20 12 7 5 5 7 10 14 16 27 45 72 64 27 28 42
40 51 61 77 93 99 100 100 100 100 100 100 100 99 95 92 90 84 73 64 63 62 56 41 29 23 18 13 8 5 5 6 8 13 19 25 38 56 75 64 30 24 44 45
90 93 100 100 100 100 100 100 100 100 100 99 96 93 89 80 69 62 60 57 53 47 37 28 20 14 9 6 5 6 8 12 21 30 43 59 67 65 47 25 26 43 51 41
100 100 100 100 100 100 100 100 100 100 100 97 90 79 67 59 57 57 56 52 44 33 22 15 10 7 6 6 8 14 23 39 56 63 66 60 40 28 24 29 45 55 52 34
100 100 100 100 100 100 100 100 100 96 89 80 68 60 57 58 58 55 47 33 22 14 9 7 6 7 8 14 25 39 55 65 61 45 27 21 21 24 32 47 57 56 41 32
Wind_Speed
24 24 24 24 22 20 15 15 7 6 9 8 7 10 12 19 23 30 25 26 27 36 31 33 39 33 36 38 36 35 37 37 36 32 33 35 37 39 40 44 48 52 56 59
22 21 20 21 22 13 15 9 5 3 2 2 6 6 8 15 23 27 26 24 26 39 20 30 31 27 28 25 31 33 32 30 29 30 34 36 37 40 44 48 51 55 59 61
21 19 18 15 17 14 10 8 9 6 6 8 8 5 8 11 18 21 25 21 23 23 22 8 19 23 25 29 27 24 24 26 30 32 34 36 40 43 47 51 54 58 59 60
18 16 15 15 14 13 7 9 9 9 9 12 11 12 16 21 19 17 20 20 16 19 20 17 17 21 20 18 19 22 26 28 30 32 35 39 43 48 51 54 56 58 60 62
16 15 14 12 12 11 9 5 5 9 16 19 21 21 18 17 16 17 18 17 16 16 14 12 12 14 18 20 21 23 25 28 32 35 39 43 47 50 53 54 57 59 60 63
14 12 11 10 10 10 8 7 8 10 14 16 17 17 20 20 20 20 19 19 18 17 16 17 17 17 18 19 22 24 28 31 35 39 43 46 49 52 54 56 57 59 63 66
13 10 7 9 7 7 6 5 6 8 9 10 12 13 13 14 15 14 14 13 13 13 13 14 15 16 18 21 25 28 32 36 39 42 46 48 51 53 54 55 59 62 64 66
13 9 7 6 7 5 4 5 4 4 5 7 7 7 7 8 8 8 8 8 9 10 11 13 16 20 23 26 29 33 36 39 42 45 48 50 50 51 54 57 60 62 65 69
17 15 11 9 8 8 8 6 4 2 1 2 3 3 3 4 5 6 7 9 11 13 15 18 21 24 27 30 33 36 39 42 45 47 47 48 50 53 55 59 62 64 68 72
24 20 17 15 14 13 12 11 10 8 7 6 7 7 8 9 10 11 13 15 17 19 21 23 26 28 31 34 37 39 41 43 44 45 47 48 51 56 59 61 64 68 72 77
28 25 22 19 18 16 15 15 14 14 14 14 14 14 14 15 16 16 17 18 20 21 23 25 28 30 33 35 37 39 40 41 43 44 47 51 56 59 61 64 69 73 78 81
23 23 20 20 19 20 18 18 18 18 17 17 17 17 17 17 18 18 19 21 22 23 25 27 29 32 34 35 37 39 40 42 43 47 51 56 58 61 64 68 73 77 80 80
23 22 21 22 23 22 23 24 24 24 24 22 22 22 21 22 22 23 24 24 25 27 28 30 32 34 35 37 39 40 41 44 47 52 55 58 60 64 67 72 76 79 79 77
32 30 28 27 25 25 26 26 27 27 28 27 26 26 26 27 27 28 28 29 29 30 32 34 35 37 38 39 40 41 44 48 52 55 57 61 63 67 71 74 76 76 74 72
34 31 26 22 23 25 25 26 27 27 27 28 29 30 30 31 31 31 32 32 33 34 36 37 38 39 39 40 42 45 48 52 54 57 60 63 66 70 73 75 74 72 69 67
37 35 33 25 22 26 28 28 28 30 30 30 30 31 32 33 33 34 35 35 36 37 38 38 39 40 41 43 45 49 52 54 56 59 62 65 69 72 73 72 70 68 64 60
40 39 43 38 28 29 29 30 31 31 32 33 33 33 34 34 35 35 36 38 39 39 39 39 40 41 43 46 49 51 54 56 59 61 65 69 71 71 70 68 65 62 57 52
43 44 43 38 35 35 34 34 34 35 36 36 36 36 37 37 37 38 39 40 40 40 40 41 42 44 47 49 52 53 55 58 61 65 68 69 70 69 66 64 60 56 51 44
48 46 45 42 39 39 39 38 38 39 38 38 38 38 39 40 40 40 40 40 39 40 41 43 45 48 50 51 53 55 58 62 65 67 68 68 66 63 62 59 54 48 42 38
47 47 45 41 41 42 43 42 41 40 39 38 38 39 39 39 39 39 40 40 41 43 45 46 49 50 51 53 56 59 62 65 67 67 66 63 61 59 56 53 47 39 36 39
43 44 42 42 42 44 44 43 43 40 39 39 39 38 38 38 39 40 40 42 43 45 47 49 50 51 54 57 61 63 65 66 66 63 60 58 56 53 48 43 38 34 37 39
42 43 43 44 44 43 42 42 40 39 38 38 38 39 40 40 41 42 43 44 45 47 49 50 53 56 59 61 64 65 66 64 61 57 55 53 50 45 40 35 33 36 37 37
43 42 42 43 41 40 40 39 39 39 39 39 41 42 43 43 43 44 45 47 49 50 52 55 58 60 62 64 65 65 63 58 55 53 51 46 42 37 32 32 35 37 35 34
45 45 45 42 39 38 37 36 37 37 38 40 42 43 44 45 47 49 50 51 52 55 57 60 62 64 65 65 63 59 55 53 51 47 42 38 34 30 33 36 37 35 33 30
35 36 37 36 36 36 35 35 36 37 39 41 44 46 48 49 50 51 52 54 57 59 62 64 65 65 63 60 56 53 50 46 42 36 33 30 32 36 37 37 35 33 32 28
34 34 32 31 32 34 35 38 39 41 42 44 47 48 50 51 52 54 57 60 62 64 64 64 63 61 57 54 51 46 41 36 33 32 33 37 38 38 37 34 34 33 30 27
31 32 32 33 34 36 39 41 43 45 47 48 49 51 52 54 57 59 61 63 64 63 62 61 58 54 51 47 42 37 35 36 37 38 39 39 38 37 35 34 33 32 27 23
Wind_Direction
339 346 341 349 342 331 327 313 313 284 249 270 232 233 223 204 205 203 196 196 198 201 193 184 208 205 216 226 237 247 253 261 268 277 281 281 284 289 293 295 299 302 303 305
349 343 346 360 355 2 358 348 292 295 265 249 219 221 217 206 198 189 199 194 209 209 184 182 208 219 228 239 246 252 261 270 277 278 278 283 288 291 295 299 301 303 304 305
346 351 356 1 10 15 10 70 84 102 92 98 103 123 138 168 183 189 189 193 196 217 251 270 219 231 242 244 252 263 269 271 272 276 283 287 290 295 298 300 302 304 305 307
348 357 9 14 19 30 40 61 77 71 100 102 109 126 144 160 169 178 186 203 213 214 226 234 233 236 245 252 257 260 264 271 277 280 285 290 295 297 300 302 304 306 307 308
344 353 6 27 30 34 46 45 64 110 119 114 111 109 118 135 150 162 173 182 189 198 205 211 222 232 240 249 258 265 269 274 279 286 291 294 297 299 302 304 306 306 306 307
332 343 359 4 26 36 43 67 87 99 115 124 126 132 138 145 151 159 164 173 183 193 205 218 231 242 251 256 261 268 276 283 288 291 294 297 300 302 304 304 305 305 307 308
317 331 343 353 355 15 36 60 94 106 110 115 125 134 139 148 156 165 176 187 197 209 219 229 238 248 258 268 275 282 287 291 293 296 297 300 302 302 303 304 305 306 307 310
294 302 306 325 336 340 13 36 64 99 121 128 126 129 140 154 166 176 188 199 211 226 240 252 262 270 277 284 288 291 293 294 295 298 299 299 300 301 302 304 306 308 311 312
274 280 282 288 290 293 298 305 310 312 261 215 211 223 219 219 225 234 242 250 259 268 275 280 284 286 288 289 291 293 294 296 296 295 297 299 299 301 304 307 310 310 312 314
266 268 271 273 276 278 274 272 277 284 289 291 292 292 290 288 286 286 286 286 285 284 284 285 287 290 292 292 292 292 291 292 294 295 296 299 303 307 308 308 310 313 315 316
260 261 263 267 271 276 278 280 283 284 284 281 279 277 278 279 281 282 285 287 289 290 290 290 289 288 287 287 289 290 290 291 293 296 301 304 306 307 309 311 313 314 315 316
254 259 264 271 276 280 280 281 280 282 285 283 281 280 280 281 284 287 288 287 285 283 284 286 288 288 288 288 289 291 294 296 298 301 304 306 308 310 312 313 313 314 315 316
259 260 268 276 278 279 280 278 278 278 279 279 277 276 276 275 276 279 281 284 285 286 288 290 292 292 293 293 294 295 296 298 302 305 306 308 310 311 312 313 313 313 316 318
259 266 265 267 277 280 280 280 278 277 275 273 273 274 274 276 279 282 284 286 287 288 291 294 294 294 294 294 295 297 299 303 305 307 308 309 310 311 311 311 313 316 318 318
254 266 266 268 277 281 284 284 280 278 279 277 274 274 276 278 280 282 284 286 288 289 291 292 292 293 294 295 296 299 303 305 306 307 308 308 309 310 310 312 315 317 316 315
253 257 266 270 281 285 285 285 286 280 277 278 277 277 277 279 280 282 284 285 285 287 289 290 291 293 294 297 300 302 304 304 306 306 307 308 308 310 312 315 316 316 315 316
252 254 263 269 273 281 286 286 284 285 282 279 278 278 278 279 280 281 282 283 286 288 289 290 291 294 296 299 301 302 303 304 305 306 307 308 309 312 315 316 314 313 315 316
256 258 261 267 269 276 281 286 287 284 281 281 280 280 280 281 282 283 284 285 286 287 289 291 293 296 298 299 299 301 302 304 305 306 307 309 311 313 314 313 312 314 315 315
257 263 264 268 271 276 280 283 286 285 284 282 281 281 281 281 282 284 284 284 286 287 289 292 294 295 296 299 300 302 303 305 305 307 309 310 312 312 311 311 313 314 314 315
262 265 265 267 272 278 282 284 286 284 283 281 280 279 279 281 281 281 282 283 284 287 289 292 294 297 298 300 302 303 304 305 306 308 310 311 311 310 309 311 312 313 314 316
265 265 266 268 273 279 281 282 284 283 281 280 279 280 280 280 280 281 281 283 286 289 292 294 296 297 299 301 303 304 305 306 307 308 309 308 307 308 309 310 310 312 315 317
264 268 271 273 274 277 278 280 282 281 280 280 280 280 280 280 280 282 284 287 290 292 293 295 297 299 300 302 303 304 305 305 307 308 306 306 307 307 307 307 310 312 315 316
271 271 272 272 276 275 276 278 278 278 278 279 278 278 279 282 285 286 288 290 290 292 294 296 298 300 302 303 303 304 305 307 307 305 305 306 305 304 304 306 310 312 313 314
267 267 267 271 270 269 271 272 273 274 275 276 276 278 281 285 286 287 287 289 292 295 297 299 300 301 302 302 303 305 305 305 304 304 303 303 303 302 304 307 308 309 311 311
261 260 259 259 262 264 265 268 269 271 274 276 280 282 284 285 287 289 292 294 296 298 299 299 299 300 301 303 303 303 303 303 302 302 301 301 302 303 304 305 305 306 309 306
260 260 259 259 262 265 268 270 272 274 278 281 283 286 287 289 291 293 295 296 296 297 297 298 299 301 302 302 301 301 301 300 300 300 298 299 300 301 302 302 302 304 305 302
257 259 263 267 270 272 273 275 278 280 281 283 285 287 288 290 292 293 294 294 295 296 298 299 300 300 299 298 297 296 295 295 296 297 298 298 298 299 299 300 300 302 299 292